Location: �clusier
(49.9361°N, 2.7869°E)
Time: 01:19:00
(UTC+00:00)

Cosmos 2333 Rocket - Visible Passes

Search period start: 23 October 2021 00:00
Search period end: 02 November 2021 00:00
Orbit: 839 x 863 km, 70.8° (Epoch: 22 October)

Date Brightness Start Highest point End Pass type
(mag) Time Alt. Az. Time Alt. Az. Time Alt. Az.
23 Oct 5.0 01:54:35 10° N 01:57:00 12° NNE 01:59:23 10° NE visible
23 Oct 3.7 03:37:49 10° NNW 03:43:07 36° NE 03:48:23 10° ESE visible
23 Oct 2.4 05:22:02 10° NW 05:27:37 51° WSW 05:33:09 10° S visible
23 Oct 3.9 18:36:26 10° SSE 18:37:48 16° SSE 18:37:48 16° SSE visible
23 Oct 4.6 20:19:22 10° SW 20:19:57 13° SW 20:19:57 13° SW visible
24 Oct 4.9 01:43:11 11° N 01:44:46 13° NNE 01:47:10 10° NE visible
24 Oct 3.6 03:25:35 10° NNW 03:30:53 36° NE 03:36:09 10° ESE visible
24 Oct 2.4 05:09:49 10° NW 05:15:23 51° WSW 05:20:55 10° S visible
24 Oct 3.3 18:24:12 10° SSE 18:27:35 25° SE 18:27:35 25° SE visible
24 Oct 3.8 20:07:09 10° SW 20:09:43 27° SW 20:09:43 27° SW visible
25 Oct 5.0 01:32:04 12° NNE 01:32:31 13° NNE 01:34:56 10° NE visible
25 Oct 3.6 03:14:08 14° NNW 03:18:38 36° NE 03:23:55 10° ESE visible
25 Oct 2.4 04:57:34 10° NW 05:03:09 51° WSW 05:08:40 10° S visible
25 Oct 3.0 18:11:58 10° SSE 18:16:37 27° ESE 18:17:13 26° E visible
25 Oct 2.9 19:54:54 10° SW 19:59:19 49° WSW 19:59:19 49° WSW visible
26 Oct 5.0 01:21:11 12° NNE 01:21:11 12° NNE 01:22:42 10° NE visible
26 Oct 3.6 03:03:17 21° N 03:06:24 36° NE 03:11:41 10° ESE visible
26 Oct 2.4 04:45:22 10° NW 04:50:54 51° WSW 04:56:27 10° S visible
26 Oct 3.1 17:59:43 10° SSE 18:04:23 27° ESE 18:06:38 21° ENE visible
26 Oct 2.6 19:42:40 10° SW 19:48:16 60° NW 19:48:44 58° NW visible
26 Oct 5.0 21:30:06 10° WNW 21:30:49 12° WNW 21:30:49 12° WNW visible
27 Oct 3.6 02:52:40 31° NNE 02:54:10 36° NE 02:59:28 10° ESE visible
27 Oct 2.4 04:34:47 19° NW 04:38:40 51° WSW 04:44:12 10° S visible
27 Oct 3.1 17:47:28 10° SSE 17:52:09 27° ESE 17:55:48 15° NE visible
27 Oct 2.6 19:30:26 10° SW 19:36:03 60° NW 19:37:52 41° N visible
27 Oct 4.8 21:17:52 10° WNW 21:19:57 16° NW 21:19:57 16° NW visible
28 Oct 3.6 02:42:17 36° NE 02:42:17 36° NE 02:47:13 10° ESE visible
28 Oct 2.3 04:24:24 35° WNW 04:26:26 51° WSW 04:31:58 10° S visible
28 Oct 3.1 17:35:15 10° SSE 17:39:54 27° ESE 17:44:38 10° NE visible
28 Oct 2.6 19:18:12 10° SW 19:23:48 60° NW 19:26:47 28° NNE visible
28 Oct 4.7 21:05:37 10° WNW 21:08:50 17° NW 21:08:50 17° NW visible
29 Oct 4.0 02:32:03 26° E 02:32:03 26° E 02:34:59 10° ESE visible
29 Oct 2.3 04:14:11 51° WSW 04:14:11 51° WSW 04:19:44 10° S visible
29 Oct 3.1 17:23:00 10° SSE 17:27:40 27° ESE 17:32:24 10° NE visible
29 Oct 2.7 19:05:57 10° SW 19:11:34 60° NW 19:15:28 21° NNE visible
29 Oct 4.6 20:53:23 10° WNW 20:57:07 17° NNW 20:57:30 17° NNW visible
30 Oct 4.7 02:21:53 14° ESE 02:21:53 14° ESE 02:22:45 10° ESE visible
30 Oct 3.0 04:04:02 35° SSW 04:04:02 35° SSW 04:07:30 10° S visible
30 Oct 3.1 17:10:46 10° SSE 17:15:26 27° ESE 17:20:10 10° NE visible
30 Oct 2.7 18:53:43 10° SW 18:59:20 60° NW 19:03:59 16° NNE visible
30 Oct 4.6 20:41:09 10° WNW 20:44:53 17° NNW 20:46:01 16° NNW visible
31 Oct 4.0 03:53:52 18° S 03:53:52 18° S 03:55:16 10° S visible
31 Oct 3.2 16:58:31 10° SSE 17:03:12 27° ESE 17:07:56 10° NE visible
31 Oct 2.7 18:41:29 10° SW 18:47:06 60° NW 18:52:22 12° NNE visible
31 Oct 4.6 20:28:55 10° WNW 20:32:39 17° NNW 20:34:24 15° N visible
01 Nov 2.7 18:29:15 10° SW 18:34:52 60° NW 18:40:34 10° NNE visible
01 Nov 4.6 20:16:41 10° WNW 20:20:25 17° NNW 20:22:41 14° N visible
